sat.trackr.live / text

‹ back to catalog

STARLINK-1641

NORAD 46174 · 2020-057BK

PAYLOAD ACTIVE UNKNOWN

§ Identity

Operator
Country
US
Launch date
2020-08-18
Launch site
AFETR
Launch vehicle
Mass (kg)
RCS (m²)

Purposes: comms

External: N2YO · Heavens-Above · Gunter

§ Orbital elements

Epoch: 2026-09-13T04:00:01.998720Z

Period
90.87 min
Inclination
53.0362°
Eccentricity
0.0003140
Mean motion
15.84610097 rev/d
Perigee alt
315.3 km
Apogee alt
319.5 km
Semi-major
6,695.6 km
B*
4.1678e-4
RAAN
86.8279°
Arg perigee
192.6351°
Mean anomaly
354.7005°
Rev number
598

§ Raw data

STARLINK-16411 46174U 20057BK  26256.16668980  .00098457  00000+0  41678-3 0  99922 46174  53.0362  86.8279 0003140 192.6351 354.7005 15.84610097  5985

JSON: /api/v1/satellites/46174 · /tle

For live sub-satellite position, see the globe view (requires WebGL).

§ Visibility from observer

Set your observer location to see the next 7 days of passes ≥ 10°. The values pass through the URL so the page stays shareable.

No JS? Fill the form by hand. The geolocation button needs JavaScript.